Regional Weather Roundup
Issued by NWS

Home | Current Version | Previous Version | Graphics & Text | Print | Product List | Glossary On
Versions: 1 2 3 4 5 6 7 8 9 10 11 12 13 14 15 16 17 18 19 20 21 22 23 24 25 26 27 28 29 30 31 32 33 34 35 36 37 38 39 40 41 42 43 44 45 46 47 48 49 50
000
ASUS43 KMPX 301101
RWRMN
WEATHER ROUNDUP FOR MINNESOTA
NATIONAL WEATHER SERVICE TWIN CITIES/CHANHASSEN MN
600 AM CDT SAT AUG 30 2014


NOTE: "FAIR" INDICATES FEW OR NO CLOUDS BELOW 12,000 FEET WITH NO
SIGNIFICANT WEATHER AND/OR OBSTRUCTIONS TO VISIBILITY. N/A MEANS
CURRENT SKY AND/OR WEATHER CONDITIONS ARE NOT AVAILABLE.

MNZ060>063-068>070-301200-
   Twin Cities Metro

CITY           SKY/WX    TMP DP  RH WIND       PRES   REMARKS
TWIN CITIES    CLOUDY    67  66  97 N7        29.79R
ST PAUL        CLOUDY    67  66  97 NW9       29.79R
CRYSTAL        CLOUDY    68  64  87 NW9       29.79R
BLAINE         CLOUDY    68  66  94 NW7       29.80R
LAKEVILLE      CLOUDY    66  66 100 NW8       29.78S
EDEN PRAIRIE   CLOUDY    68  66  93 NW9       29.79R
SOUTH ST PAUL  CLOUDY    68  66  92 N6        29.78R
LAKE ELMO      CLOUDY    66  64  94 N6        29.79R
$$
MNZ001>005-007-008-013>017-022>024-027-028-301200-
   Northwest Minnesota

CITY           SKY/WX    TMP DP  RH WIND       PRES   REMARKS
BEMIDJI        CLOUDY    57  55  90 N7        29.89R
HALLOCK        CLEAR     45  43  93 N5        29.96R
ROSEAU         CLEAR     48  43  81 N3        29.95R HAZE
WARROAD        CLEAR     48  45  87 NW7       29.94S
THIEF RVR FALL CLEAR     52  48  87 N6        29.93S
CROOKSTON      CLEAR     48  48 100 N5        29.95R
FOSSTON        CLOUDY    55  54  94 N8        29.92R
DETROIT LAKES  CLOUDY    59  57  94 N5        29.90R
MOORHEAD       CLOUDY    57  57 100 N13       29.91R
PARK RAPIDS    CLOUDY    59  56  89 N9        29.87R
MAHNOMEN       CLOUDY    56  55  96 N9        29.89S
$$
MNZ006-009>011-018-025>026-301200-
   North Central Minnesota

CITY           SKY/WX    TMP DP  RH WIND       PRES   REMARKS
BAUDETTE       PTCLDY    55  53  93 N7        29.92R
FLAG ISLAND    PTCLDY    57  54  88 N8        29.93R
INTL FALLS     CLOUDY    58  54  86 NE12      29.89R
WASKISH        CLOUDY    55  54  94 N6        29.91R
BIG FORK       CLOUDY    57  55  94 N6        29.88R FOG
LONGVILLE      CLOUDY    61  59  94 NW3       29.85R FOG
GRAND RAPIDS   CLOUDY    61  57  88 N8        29.85R
CRANE LAKE     CLOUDY    57  55  94 N3        29.88R
ORR            CLOUDY    55  54  94 CALM      29.84R
COOK           CLOUDY    59  57  94 N3        29.85S
WALKER         CLOUDY    56  55  97 CALM      29.87S
$$
MNZ012-019>021-037-301200-
   Northeast Minnesota

CITY           SKY/WX    TMP DP  RH WIND       PRES   REMARKS
DULUTH         MOCLDY    61  58  90 CALM      29.82R
ELY            CLOUDY    61  59  94 CALM      29.84R FOG
HIBBING        CLOUDY    63  60  90 N6        29.84R
EVELETH        CLOUDY    59  59 100 N6        29.85R
DULUTH HARBOR  FOG       63  61  94 N3        29.81R VSB 1/2
TWO HARBORS    MOCLDY    55  52  88 CALM      29.80R
SILVER BAY     MOCLDY    55  55 100 CALM      29.80R
GRAND MARAIS     N/A     58  56  93 CALM      29.81R
G MARAIS ARPRT CLOUDY    55  54  94 N5        29.84R
$$
MNZ029>031-032-039>041-046>048-054>057-064-301200-
   West Central Minnesota

CITY           SKY/WX    TMP DP  RH WIND       PRES   REMARKS
FERGUS FALLS   CLOUDY    61  57  88 N7        29.88R
WHEATON        CLOUDY    57  55  94 NW10      29.91R
MORRIS         FOG       61  61 100 NW10      29.86S VSB 3/4
ALEXANDRIA     CLOUDY    65  64  97 NW7       29.87R
ELBOW LAKE     CLOUDY    60  60 100 NW7       29.87R FOG
WADENA         CLOUDY    61  57  88 NW8       29.86R
GLENWOOD       CLOUDY    64  63  94 W6        29.86R FOG
APPLETON       CLOUDY    63  59  88 NW8       29.86S
BENSON         CLOUDY    61  61 100 N12       29.86S FOG
ORTONVILLE     CLOUDY    61  57  88 NW12      29.89R FOG
MADISON        CLEAR     64  61  88 NW8       29.88S
WILLMAR        CLOUDY    66  64  94 W8        29.86R FOG
$$
MNZ033>034-036-042>043-049>051-058-059-301200-
   Central Minnesota

CITY           SKY/WX    TMP DP  RH WIND       PRES   REMARKS
ST CLOUD       CLOUDY    67  65  93 N3        29.82R
SAUK CENTRE    CLOUDY    64  64 100 NW7       29.84R
PAYNESVILLE    RAIN      63  63 100 SW5       29.84R
AITKIN         CLOUDY    64  59  82 CALM      29.82R HAZE
PINE RIVER     CLOUDY    61  61 100 N7        29.89R FOG
BRAINERD       CLOUDY    64  63  96 N8        29.84R
STAPLES        CLOUDY    63  61  94 N7        29.85R
LONG PRAIRIE   CLOUDY    63  63 100 NW3       29.85R
LITTLE FALLS   CLOUDY    63  63 100 CALM      29.83R
LITCHFIELD     CLOUDY    66  66 100 W3        29.84R
BUFFALO        CLOUDY    66  64  91 NW3       29.83R
MAPLE LAKE     CLOUDY    67  66  97 CALM      29.83R
$$
MNZ037-044-045-052-053-301200-
   East Central Minnesota

CITY           SKY/WX    TMP DP  RH WIND       PRES   REMARKS
PRINCETON      CLOUDY    66  64  94 N6        29.82R
MORA           MOCLDY    63  63 100 CALM      29.82S
CAMBRIDGE      MOCLDY    66  59  77 NW6       29.79R
RUSH CITY      CLOUDY    64  62  93 N3        29.81R
MOOSE LAKE     CLOUDY    61  61 100 CALM      29.80S
HINCKLEY       CLOUDY    63  63 100 CALM      29.81R
CLOQUET        MOCLDY    61  57  88 N5        29.83R
MCGREGOR       CLOUDY    63  61  94 CALM      29.84R VSB 1/2
$$
MNZ071>073-080-081-089-090-097-098-301200-
   Southwest Minnesota

CITY           SKY/WX    TMP DP  RH WIND       PRES   REMARKS
MONTEVIDEO     CLOUDY    63  63 100 N6        29.87S FOG
GRANITE FALLS  CLOUDY    61  62 100 NW10      29.88R FOG
CANBY          CLOUDY    60  59  97 NW12      29.90R FOG
MARSHALL       CLOUDY    61  57  88 NW12      29.86S
REDWOOD FALLS  CLOUDY    66  65  96 NW13      29.84R
OLIVIA         CLOUDY    64  63  94 NW9       29.84R
PIPESTONE      CLOUDY    64  63  94 N8        29.89S FOG
WINDOM         CLOUDY    66  64  94 NW8       29.86R
WORTHINGTON    CLOUDY    64  64 100 N8        29.89R
JACKSON        CLOUDY    64  63  94 NW7G16    29.86R
TRACY          FOG       63  62  97 NW6       29.87S VSB 1
SLAYTON        CLOUDY    62  62 100 CALM      29.89S FOG
$$
MNZ065>067-074>077-082>085-091>093-301200-
   South Central Minnesota

CITY           SKY/WX    TMP DP  RH WIND       PRES   REMARKS
MANKATO        CLOUDY    66  63  88 NW8       29.81R
NEW ULM        PTCLDY    64  64 100 NW6       29.82R FOG
ST JAMES       CLOUDY    66  64  94 W7        29.84R
FAIRMONT       CLOUDY    64  57  77 NW8       29.83R
GLENCOE        CLOUDY    68  65  92 NW5       29.81R
FARIBAULT      CLOUDY    70  64  83 NW5       29.79S HAZE
OWATONNA       CLOUDY    68  66  94 NW7       29.80R FOG
WASECA         CLOUDY    64  61  88 NW6       29.81S FOG
ALBERT LEA     CLOUDY    66  66 100 NW6       29.80R FOG
$$
MNZ078>079-086>088-094>096-301200-
   Southeast Minnesota

CITY           SKY/WX    TMP DP  RH WIND       PRES   REMARKS
ROCHESTER      LGT RAIN  66  64  93 NW9       29.78R
RED WING       DRIZZLE   66  64  94 NW3       29.75S
STANTON        CLOUDY    68  66  92 NW5       29.77R FOG
DODGE CENTER   LGT RAIN  66  64  94 NW7       29.79R
WINONA         CLOUDY    68  68 100 CALM      29.75R
AUSTIN         DRIZZLE   66  64  94 NW8       29.79R
PRESTON        CLOUDY    65  65 100 CALM      29.78R FOG
$$
ABBREVIATIONS USED IN REMARKS
   TC - TEMPERATURES IN CELSIUS
  WCI - WIND CHILL INDEX
   HX - HEAT INDEX
  VSB - VISIBILITY
$$



USA.gov is the U.S. government's official web portal to all federal, state and local government web resources and services.